Location: Rockford
(42.2710°N, 89.0940°W)
Time: 18:17:20
(UTC-05:00)

SPOT 5 - Visible Passes

Search period start: 05 July 2015 00:00
Search period end: 15 July 2015 00:00
Orbit: 821 x 823 km, 98.5° (Epoch: 05 July)

Date Brightness Start Highest point End Pass type
(mag) Time Alt. Az. Time Alt. Az. Time Alt. Az.
05 Jul 4.4 22:19:05 10° SSW 22:24:00 36° W 22:28:53 10° NNW visible
06 Jul 3.8 21:58:31 10° S 22:03:45 54° W 22:09:01 10° NNW visible
07 Jul 3.2 21:38:13 10° SSE 21:43:35 81° WSW 21:49:00 10° NNW visible
08 Jul 3.2 21:18:10 10° SSE 21:23:29 68° ENE 21:28:50 10° N visible
08 Jul 5.5 23:00:58 10° SW 23:04:15 16° W 23:07:17 10° NW visible
09 Jul 3.6 20:58:22 10° SE 21:03:26 45° ENE 21:08:32 10° N visible
09 Jul 5.0 22:39:32 10° SSW 22:43:51 24° W 22:48:04 10° NW visible
10 Jul 4.4 22:18:37 10° SSW 22:23:32 36° W 22:28:25 10° NNW visible
11 Jul 3.8 21:58:03 10° S 22:03:18 54° W 22:08:33 10° NNW visible
12 Jul 3.2 21:37:46 10° SSE 21:43:07 81° WSW 21:48:32 10° NNW visible
13 Jul 3.2 21:17:43 10° SSE 21:23:01 68° ENE 21:28:22 10° N visible
13 Jul 5.5 23:00:30 10° SW 23:03:47 16° W 23:06:49 10° NW visible
14 Jul 3.6 20:57:54 10° SE 21:02:58 45° ENE 21:08:05 10° N visible
14 Jul 5.1 22:39:03 10° SSW 22:43:23 24° W 22:47:36 10° NW visible
